Regional Weather Roundup
Issued by NWS Bismarck, ND

Home | Current Version | Previous Version | Text Only | Print | Product List | Glossary On
Versions: 1 2 3 4 5 6 7 8 9 10 11 12 13 14 15 16 17 18 19 20 21 22 23 24 25 26 27 28 29 30 31 32 33 34 35 36 37 38 39 40 41 42 43 44 45 46 47 48 49 50
000
ASUS43 KBIS 260810
RWRBIS

NWR BROADCAST TEXT
NATIONAL WEATHER SERVICE BISMARCK ND
300 AM CDT THU MAY 26 2016

NOTE: "FAIR" INDICATES FEW OR NO CLOUDS BELOW 12,000 FEET WITH NO
SIGNIFICANT WEATHER AND/OR OBSTRUCTIONS TO VISIBILITY.


CITY           SKY/WX    TMP DP  RH WIND       PRES   REMARKS
WILLISTON      CLEAR     46  44  93 CALM      29.81S
MINOT          CLOUDY    58  54  86 SW9       29.73F
MINOT AFB      FOG       54  54 100 NW5       29.72S VSB 3/4
BISMARCK       CLEAR     49  47  93 SW3       29.81R
DICKINSON      CLEAR     42  39  89 W8        29.81S
GARRISON         N/A     53  50  89 W13       29.77R
HETTINGER ARPT CLEAR     39  36  89 CALM      29.86S
JAMESTOWN      CLEAR     54  53  97 SW5       29.72F
BEACH          FAIR      46  46 100 SW8       29.86S
CARRINGTON     FAIR      55  55 100 SW5       29.74F FOG
HAZEN          FAIR      45  45 100 W6        29.82R
LINTON           N/A     46  46 100 W3          N/A
MANDAN         FAIR      45  45 100 W7        29.81R
OAKES            N/A    N/A N/A N/A MISG        N/A
RUGBY          CLOUDY    54  54 100 CALM      29.73S
STANLEY        CLOUDY    52  52 100 W7        29.79S FOG
WATFORD CITY   FAIR      41  41 100 SW7       29.81F
$$

CITY           SKY/WX    TMP DP  RH WIND       PRES   REMARKS
GRAND FORKS    CLOUDY    57  55  93 S5        29.69S
GRAND FORKS AF CLOUDY    56  56 100 W2        29.69S
DEVILS LAKE    MOCLDY    53  53 100 NW8       29.71F
FARGO          FOG       53  51  93 SE3       29.72S VSB 1
CANDO          CLOUDY    55  55 100 N6        29.74F
CAVALIER       CLOUDY    57  57 100 SW9       29.65R
GRAFTON          N/A     57  57 100 W12       29.69S
GWINNER        FAIR      54  52  94 SW7       29.75S
LANGDON        CLOUDY    55  55 100 W12       29.69F FOG
ROLLA          RAIN      54  54 100 N7        29.75S
WALHALLA       FAIR      55  55 100 W9        29.64F
$$

CITY           SKY/WX    TMP DP  RH WIND       PRES   REMARKS
ABERDEEN       CLEAR     53  49  86 W7        29.79S
MOBRIDGE       CLEAR     51  47  86 SE5       29.82R
BUFFALO          N/A     47  40  76 W5        29.81S
RAPID CITY     CLEAR     46  43  89 CALM      29.90S
GLASGOW        CLOUDY    47  42  83 NW5       29.83S
SIDNEY         CLEAR     47  44  90 NW8       29.82S
WOLF POINT     PTCLDY    44  41  89 N3        29.83F
GLENDIVE       CLOUDY    52  46  82 W8        29.85F
MILES CITY     PTCLDY    50  45  83 W3        29.87R
BAKER          PTCLDY    46  42  86 CALM      29.85F
$$

CITY           SKY/WX    TMP DP  RH WIND       PRES   REMARKS
BILLINGS       MOCLDY    51  42  71 SW10      29.92F
GREAT FALLS    MOCLDY    45  42  89 W7        29.93F
REGINA         LGT RAIN  52  52 100 N12       29.83S
ESTEVAN        CLOUDY    54  52  94 VRB2      29.76S
$$




USA.gov is the U.S. government's official web portal to all federal, state and local government web resources and services.